EW0734 Weather Reports


time (UTC)temp
F
wind
direction
speed
knots
gust
knots
rain 1hr
in
rain 24hr
in
rain mn
in
humidity
%
barometer
mb
20260902201527 81 0.0 0.0 0.00 0.00 0.00 80 1016.5
20260902200528 82 0.0 0.0 0.00 0.00 0.00 78 1016.3
20260902195527 83 0.0 0.0 0.00 0.00 0.00 76 1016.5
20260902194529 84 0.0 0.0 0.00 0.00 0.00 75 1016.9
20260902193530 86 0.0 0.0 0.00 0.00 0.00 71 1016.6
20260902192549 92 0.0 0.0 0.00 0.00 0.00 64 1016.7
20260902191529 93 0.0 0.0 0.00 0.00 0.00 68 1015.9
20260902190529 93 0.0 0.0 0.00 0.00 0.00 65 1015.5
20260902185529 94 0.0 0.0 0.00 0.00 0.00 65 1015.8
20260902184548 94 0.0 0.0 0.00 0.00 0.00 64 1016.3
20260902183530 94 0.0 0.0 0.00 0.00 0.00 65 1016.3
20260902182530 93 0.0 0.0 0.00 0.00 0.00 65 1016.1
20260902181530 93 0.0 0.0 0.00 0.00 0.00 67 1015.9
20260902180530 94 0.0 0.0 0.00 0.00 0.00 64 1016.0
20260902175529 93 0.0 0.0 0.00 0.00 0.00 65 1016.2
20260902174550 94 0.0 0.0 0.00 0.00 0.00 65 1016.2
20260902173529 93 0.0 0.0 0.00 0.00 0.00 66 1016.3
20260902172529 93 0.0 0.0 0.00 0.00 0.00 63 1016.3
20260902171550 93 0.0 0.0 0.00 0.00 0.00 64 1016.4
20260902170528 93 0.0 0.0 0.00 0.00 0.00 63 1016.4
20260902165529 93 0.0 0.0 0.00 0.00 0.00 64 1016.6
20260902164529 93 0.0 0.0 0.00 0.00 0.00 65 1016.5
20260902163529 92 0.0 0.0 0.00 0.00 0.00 67 1016.5
20260902162530 91 0.0 0.0 0.00 0.00 0.00 65 1016.6
20260902161529 91 0.0 0.0 0.00 0.00 0.00 67 1016.6
20260902160528 92 0.0 0.0 0.00 0.00 0.00 63 1016.5
20260902155529 91 0.0 0.0 0.00 0.00 0.00 65 1016.4
20260902154529 91 0.0 0.0 0.00 0.00 0.00 64 1016.5
20260902153529 91 0.0 0.0 0.00 0.00 0.00 67 1016.5
20260902152529 91 0.0 0.0 0.00 0.00 0.00 65 1016.5
20260902151550 91 0.0 0.0 0.00 0.00 0.00 65 1016.6
20260902150534 90 0.0 0.0 0.00 0.00 0.00 69 1016.6
20260902145529 90 0.0 0.0 0.00 0.00 0.00 68 1016.7
20260902144529 89 0.0 0.0 0.00 0.00 0.00 71 1016.7
20260902143529 88 0.0 0.0 0.00 0.00 0.00 72 1016.8
20260902142549 88 0.0 0.0 0.00 0.00 0.00 75 1016.5
20260902141529 88 0.0 0.0 0.00 0.00 0.00 72 1016.4
20260902140528 88 0.0 0.0 0.00 0.00 0.00 73 1016.5
20260902135530 88 0.0 0.0 0.00 0.00 0.00 75 1016.5
20260902134529 87 0.0 0.0 0.00 0.00 0.00 75 1016.4
20260902133528 85 0.0 0.0 0.00 0.00 0.00 80 1016.3
20260902132528 84 0.0 0.0 0.00 0.00 0.00 82 1016.4
20260902131528 81 0.0 0.0 0.00 0.00 0.00 86 1016.1
20260902130528 79 0.0 0.0 0.00 0.00 0.00 89 1016.2
20260902125529 78 0.0 0.0 0.00 0.00 0.00 91 1016.2
20260902124529 77 0.0 0.0 0.00 0.00 0.00 92 1016.2
20260902123529 76 0.0 0.0 0.00 0.00 0.00 92 1016.1
20260902122529 75 0.0 0.0 0.00 0.00 0.00 92 1016.2
20260902121528 74 0.0 0.0 0.00 0.00 0.00 92 1016.3
20260902120529 74 0.0 0.0 0.00 0.00 0.00 91 1016.3
20260902120056 0 0.0 0.0 0.00 0.00 0.00
20260902115527 0 0.0 0.0 0.00 0.00 0.00
20260902114527 0 0.0 0.0 0.00 0.00 0.00
20260902114046 0 0.0 0.0 0.00 0.00 0.00
20260902113622 0 0.0 0.0 0.00 0.00 0.00
20260902113027 0 0.0 0.0 0.00 0.00 0.00
20260902112047 0 0.0 0.0 0.00 0.00 0.00
20260902111526 0 0.0 0.0 0.00 0.00 0.00
20260902111141 0 0.0 0.0 0.00 0.00 0.00
20260902110527 0 0.0 0.0 0.00 0.00 0.00
20260902105547 0 0.0 0.0 0.00 0.00 0.00
20260902105100 0 0.0 0.0 0.00 0.00 0.00
20260902104509 0 0.0 0.0 0.00 0.00 0.00
20260902104027 0 0.0 0.0 0.00 0.00 0.00
20260902103027 0 0.0 0.0 0.00 0.00 0.00
20260902102613 0 0.0 0.0 0.00 0.00 0.00
20260902102050 0 0.0 0.0 0.00 0.00 0.00
20260902101527 0 0.0 0.0 0.00 0.00 0.00
20260902100527 0 0.0 0.0 0.00 0.00 0.00
20260902100027 0 0.0 0.0 0.00 0.00 0.00
20260902095626 0 0.0 0.0 0.00 0.00 0.00
20260902095050 0 0.0 0.0 0.00 0.00 0.00
20260902094028 0 0.0 0.0 0.00 0.00 0.00
20260902093526 0 0.0 0.0 0.00 0.00 0.00
20260902093120 0 0.0 0.0 0.00 0.00 0.00
20260902092527 0 0.0 0.0 0.00 0.00 0.00
20260902091526 0 0.0 0.0 0.00 0.00 0.00
20260902091007 0 0.0 0.0 0.00 0.00 0.00
20260902090603 0 0.0 0.0 0.00 0.00 0.00
20260902090047 0 0.0 0.0 0.00 0.00 0.00
20260902085026 0 0.0 0.0 0.00 0.00 0.00
20260902084637 0 0.0 0.0 0.00 0.00 0.00
20260902084054 0 0.0 0.0 0.00 0.00 0.00
20260902083527 0 0.0 0.0 0.00 0.00 0.00
20260902082526 0 0.0 0.0 0.00 0.00 0.00
20260902082025 0 0.0 0.0 0.00 0.00 0.00
20260902081619 0 0.0 0.0 0.00 0.00 0.00
20260902081027 0 0.0 0.0 0.00 0.00 0.00
20260902080027 0 0.0 0.0 0.00 0.00 0.00
20260902075526 0 0.0 0.0 0.00 0.00 0.00
20260902075122 0 0.0 0.0 0.00 0.00 0.00
20260902074526 0 0.0 0.0 0.00 0.00 0.00
20260902073527 0 0.0 0.0 0.00 0.00 0.00
20260902073107 0 0.0 0.0 0.00 0.00 0.00
20260902072543 0 0.0 0.0 0.00 0.00 0.00
20260902072026 0 0.0 0.0 0.00 0.00 0.00
20260902071026 0 0.0 0.0 0.00 0.00 0.00
20260902070617 0 0.0 0.0 0.00 0.00 0.00 92
20260902070020 74 0.0 0.0 0.00 0.00 0.00 92 1015.1
20260902065028 75 0.0 0.0 0.00 0.00 0.00 92 1015.2
20260902064028 75 0.0 0.0 0.00 0.00 0.00 92 1015.0
20260902063048 75 0.0 0.0 0.00 0.00 0.00 92 1015.0
20260902062028 75 0.0 0.0 0.00 0.00 0.00 92 1014.9
20260902061028 76 0.0 0.0 0.00 0.00 0.00 91 1014.9
20260902060027 76 0.0 0.0 0.00 0.00 0.00 91 1014.8
20260902055028 76 0.0 0.0 0.00 0.00 0.00 91 1014.8
20260902054028 76 0.0 0.0 0.00 0.00 0.00 92 1014.6
20260902053027 76 0.0 0.0 0.00 0.00 0.00 92 1014.6
20260902052028 76 0.0 0.0 0.00 0.00 0.00 92 1014.7
20260902051108 77 0.0 0.0 0.00 0.00 0.00 92 1014.7
20260902050028 77 0.0 0.0 0.00 0.00 0.00 92 1014.8
20260902045027 77 0.0 0.0 0.00 0.00 0.00 92 1014.8
20260902044028 77 0.0 0.0 0.00 0.00 0.00 92 1014.9
20260902043107 77 0.0 0.0 0.00 0.00 0.00 92 1014.8
20260902042028 77 0.0 0.0 0.00 0.00 0.00 92 1014.8
20260902041048 77 0.0 0.0 0.00 0.00 0.00 92 1014.6
20260902040028 77 0.0 0.0 0.00 0.00 0.00 92 1014.6
20260902035027 77 0.0 0.0 0.00 0.00 0.00 92 1014.5
20260902034027 78 0.0 0.0 0.00 0.00 0.00 91 1014.3
20260902033028 78 0.0 0.0 0.00 0.00 0.00 91 1014.3
20260902032028 78 0.0 0.0 0.00 0.00 0.00 91 1014.2
20260902031028 78 0.0 0.0 0.00 0.00 0.00 91 1014.1
20260902030027 78 0.0 0.0 0.00 0.00 0.00 90 1014.1
20260902025027 78 0.0 0.0 0.00 0.00 0.00 90 1014.2
20260902024028 78 0.0 0.0 0.00 0.00 0.00 90 1014.3
20260902023028 78 0.0 0.0 0.00 0.00 0.00 89 1014.2
20260902022028 79 0.0 0.0 0.00 0.00 0.00 89 1014.0
20260902021027 79 0.0 0.0 0.00 0.00 0.00 89 1014.0
20260902020048 79 0.0 0.0 0.00 0.00 0.00 88 1014.0
20260902015048 79 0.0 0.0 0.00 0.00 0.00 88 1014.0
20260902014028 80 0.0 0.0 0.00 0.00 0.00 87 1013.7
20260902013027 80 0.0 0.0 0.00 0.00 0.00 87 1013.6
20260902012048 80 0.0 0.0 0.00 0.00 0.00 86 1013.4
20260902011028 80 0.0 0.0 0.00 0.00 0.00 86 1013.3
20260902010028 80 0.0 0.0 0.00 0.00 0.00 85 1013.1
20260902005027 81 0.0 0.0 0.00 0.00 0.00 84 1012.9
20260902004028 81 0.0 0.0 0.00 0.00 0.00 83 1012.7
20260902003028 81 0.0 0.0 0.00 0.00 0.00 82 1012.6
20260902002028 82 0.0 0.0 0.00 0.00 0.00 81 1012.5
20260902001027 83 0.0 0.0 0.00 0.00 0.00 79 1012.5
20260902000028 83 0.0 0.0 0.00 0.00 0.00 78 1012.5
20260901235028 84 0.0 0.0 0.00 0.00 0.00 76 1012.6
20260901234029 84 0.0 0.0 0.00 0.00 0.00 76 1012.5
20260901233028 85 0.0 0.0 0.00 0.00 0.00 74 1012.6
20260901232047 87 0.0 0.0 0.00 0.00 0.00 71 1012.5
20260901231027 88 0.0 0.0 0.00 0.00 0.00 69 1012.6
20260901230027 89 0.0 0.0 0.00 0.00 0.00 67 1012.7
20260901225028 90 0.0 0.0 0.00 0.00 0.00 64 1012.8
20260901224028 90 0.0 0.0 0.00 0.00 0.00 63 1012.9
20260901223027 90 0.0 0.0 0.00 0.00 0.00 63 1013.0
20260901222027 91 0.0 0.0 0.00 0.00 0.00 63 1013.0
20260901221027 91 0.0 0.0 0.00 0.00 0.00 63 1013.1
20260901220030 92 0.0 0.0 0.00 0.00 0.00 62 1013.1
20260901215027 92 0.0 0.0 0.00 0.00 0.00 62 1013.1
20260901214027 92 0.0 0.0 0.00 0.00 0.00 61 1013.1
20260901213028 93 0.0 0.0 0.00 0.00 0.00 62 1013.1
20260901212027 93 0.0 0.0 0.00 0.00 0.00 63 1013.1
20260901211027 92 0.0 0.0 0.00 0.00 0.00 65 1013.1
20260901210027 92 0.0 0.0 0.00 0.00 0.00 63 1013.2
20260901205027 93 0.0 0.0 0.00 0.00 0.00 62 1013.2
20260901204048 94 0.0 0.0 0.00 0.00 0.00 61 1013.3
20260901203030 94 0.0 0.0 0.00 0.00 0.00 60 1013.4